Change the Weather History Date:

Sunday, November 27, 2011

  Actual Average Record
Temperature  
Mean Temperature 47 °F 36 °F  
Max Temperature 57 °F 42 °F 68 °F (1990)
Min Temperature 36 °F 29 °F 0 °F (1930)
Degree Days  
Heating Degree Days 18 29  
Month to date heating degree days 505 637  
Since 1 July heating degree days 1034 1178  
Cooling Degree Days 0 0  
Month to date cooling degree days 0 0  
Year to date cooling degree days 969 773  
Moisture  
Dew Point 40 °F    
Average Humidity 87    
Maximum Humidity 93    
Minimum Humidity 80    
Precipitation  
Precipitation 0.44 in 0.11 in 3.92 in (1990)
Month to date precipitation 2.95 2.95  
Year to date precipitation 43.35 35.07  
Snow  
Snow 0.00 in 0.30 in 6.10 in (2013)
Month to date snowfall T 4.0  
Since 1 July snowfall T 4.4  
Since 1 September snowfall 4.4  
Snow Depth 0.00 in    
Sea Level Pressure  
Sea Level Pressure 29.93 in    
Wind  
Wind Speed 13 mph (NNW)    
Max Wind Speed 23 mph    
Max Gust Speed 28 mph    
Visibility 9 miles    
Events Rain    
T = Trace of Precipitation, MM = Missing Value Source: NWS Daily Summary

Daily Weather History Graph

Daily Weather History Graph

Search for Another Location

Airport or City:

Trip Planner

Search our weather history database for the weather conditions in past years. The results will help you decide how hot, cold, wet, or windy it might be!

Date:

Astronomy

Nov. 27, 2011 Rise Set
Actual Time 7:48 AM EST 5:17 PM EST
Civil Twilight 7:17 AM EST 5:47 PM EST
Nautical Twilight 6:43 AM EST 6:22 PM EST
Astronomical Twilight 6:09 AM EST 6:55 PM EST
Moon 10:13 AM EST (11/27) 7:55 PM EST (11/27)
Length of Visible Light 10h 30m
Length of Day
9h 28m
Waxing Crescent, 8% of the Moon is Illuminated
Nov 27
Waxing Crescent
Dec 2
First Quarter
Dec 10
Full
Dec 17
Last Quarter
Dec 24
New

Hourly Weather History & Observations

Time (EST) Temp. Windchill Dew Point Humidity Pressure Visibility Wind Dir Wind Speed Gust Speed Precip Events Conditions
12:54 AM 55.4 °F - 53.6 °F 94% 29.75 in 10.0 mi South 13.8 mph - N/A Rain Light Rain
1:54 AM 55.9 °F - 53.1 °F 90% 29.74 in 9.0 mi South 15.0 mph - 0.00 in Rain Light Rain
2:06 AM 55.4 °F - 53.6 °F 94% 29.75 in 4.0 mi South 15.0 mph - 0.04 in Rain Heavy Rain
2:47 AM 55.4 °F - 53.6 °F 94% 29.74 in 8.0 mi SW 9.2 mph - 0.09 in Rain Light Rain
2:54 AM 55.0 °F - 53.1 °F 93% 29.75 in 7.0 mi West 12.7 mph - 0.10 in Rain Light Rain
3:09 AM 51.8 °F - 50.0 °F 94% 29.75 in 7.0 mi WNW 15.0 mph - 0.03 in Rain Rain
3:54 AM 48.9 °F - 46.9 °F 93% 29.76 in 10.0 mi WNW 11.5 mph - 0.08 in Rain Light Rain
4:54 AM 46.9 °F - 45.0 °F 93% 29.78 in 8.0 mi West 11.5 mph - 0.04 in Rain Rain
5:54 AM 46.9 °F - 44.1 °F 90% 29.79 in 10.0 mi West 9.2 mph - 0.04 in Rain Light Rain
6:35 AM 46.4 °F 42.4 °F 44.6 °F 93% 29.79 in 7.0 mi WNW 8.1 mph - 0.01 in Rain Light Rain
6:54 AM 46.4 °F 41.5 °F 44.6 °F 93% 29.79 in 8.0 mi WNW 10.4 mph - N/A Rain Light Rain
7:54 AM 46.0 °F 40.6 °F 43.0 °F 89% 29.81 in 10.0 mi WNW 11.5 mph - 0.03 in Rain Light Rain
8:54 AM 45.0 °F 40.6 °F 43.0 °F 93% 29.83 in 5.0 mi West 8.1 mph - 0.01 in Rain Light Rain
9:54 AM 46.4 °F 41.1 °F 42.8 °F 87% 29.84 in 10.0 mi NW 11.5 mph - N/A Rain Light Rain
10:54 AM 45.0 °F 37.4 °F 41.0 °F 86% 29.86 in 10.0 mi NW 18.4 mph 25.3 mph 0.00 in Rain Light Rain
11:54 AM 43.0 °F 35.4 °F 39.9 °F 89% 29.87 in 6.0 mi NNW 16.1 mph 27.6 mph 0.00 in Rain Light Rain
12:54 PM 43.0 °F 36.4 °F 39.0 °F 86% 29.88 in 7.0 mi NNW 12.7 mph - 0.02 in Rain Light Rain
1:05 PM 42.8 °F 35.8 °F 39.2 °F 87% 29.88 in 8.0 mi NNW 13.8 mph 21.9 mph 0.01 in Rain Light Rain
1:54 PM 43.0 °F 35.4 °F 39.0 °F 86% 29.90 in 6.0 mi NNW 16.1 mph - 0.05 in Rain Light Rain
2:54 PM 42.1 °F 34.2 °F 37.9 °F 85% 29.91 in 10.0 mi NNW 16.1 mph 24.2 mph 0.01 in Rain Light Rain
3:51 PM 41.0 °F 31.9 °F 37.4 °F 87% 29.93 in 10.0 mi North 19.6 mph 27.6 mph 0.02 in Rain Light Rain
3:54 PM 41.0 °F 32.8 °F 37.0 °F 86% 29.95 in 10.0 mi NNW 16.1 mph 25.3 mph 0.02 in Rain Light Rain
4:45 PM 39.2 °F 32.0 °F 35.6 °F 87% 29.97 in 10.0 mi North 11.5 mph - 0.01 in Rain Light Rain
4:54 PM 39.9 °F 31.8 °F 36.0 °F 86% 29.99 in 10.0 mi NNW 15.0 mph - 0.02 in Rain Light Rain
5:16 PM 39.2 °F 30.8 °F 35.6 °F 87% 29.97 in 10.0 mi North 15.0 mph - 0.00 in Rain Light Rain
5:54 PM 39.0 °F 31.4 °F 35.1 °F 86% 30.00 in 10.0 mi North 12.7 mph - 0.00 in   Overcast
6:24 PM 39.2 °F 33.0 °F 35.6 °F 87% 30.01 in 10.0 mi North 9.2 mph - N/A   Overcast
6:54 PM 37.9 °F 31.5 °F 35.1 °F 89% 30.05 in 7.0 mi North 9.2 mph - N/A   Overcast
7:08 PM 37.4 °F 31.4 °F 35.6 °F 93% 30.04 in 7.0 mi North 8.1 mph - N/A   Overcast
7:46 PM 37.4 °F 29.3 °F 35.6 °F 93% 30.04 in 10.0 mi North 12.7 mph - N/A   Overcast
7:54 PM 37.0 °F 29.3 °F 34.0 °F 89% 30.06 in 10.0 mi North 11.5 mph - N/A   Overcast
8:01 PM 37.4 °F 29.8 °F 33.8 °F 87% 30.05 in 9.0 mi North 11.5 mph - N/A   Overcast
8:54 PM 37.0 °F 29.8 °F 34.0 °F 89% 30.08 in 10.0 mi North 10.4 mph - N/A   Overcast
9:02 PM 37.4 °F 31.4 °F 33.8 °F 87% 30.06 in 10.0 mi North 8.1 mph - N/A   Overcast
9:12 PM 37.4 °F 31.4 °F 33.8 °F 87% 30.06 in 9.0 mi North 8.1 mph - N/A   Overcast
9:21 PM 37.4 °F 32.1 °F 33.8 °F 87% 30.07 in 8.0 mi North 6.9 mph - N/A   Overcast
9:41 PM 37.4 °F 29.3 °F 33.8 °F 87% 30.05 in 10.0 mi North 12.7 mph - N/A   Overcast
9:54 PM 37.0 °F 29.8 °F 33.1 °F 86% 30.07 in 10.0 mi North 10.4 mph - N/A   Overcast
10:17 PM 35.6 °F 28.0 °F 33.8 °F 93% 30.07 in 10.0 mi North 10.4 mph - N/A   Overcast
10:37 PM 37.4 °F 30.3 °F 33.8 °F 87% 30.07 in 10.0 mi North 10.4 mph - N/A   Overcast
10:54 PM 37.0 °F 29.8 °F 33.1 °F 86% 30.10 in 10.0 mi North 10.4 mph - N/A   Overcast
11:54 PM 35.6 °F 28.6 °F 32.0 °F 87% 30.09 in 10.0 mi North 9.2 mph - N/A   Overcast